Change the Weather History Date:

Tuesday, October 18, 2011

  Actual Average Record
Temperature  
Mean Temperature 44 °F -  
Max Temperature 51 °F 57 °F 86 °F (1950)
Min Temperature 37 °F 36 °F 20 °F (1952)
Degree Days  
Heating Degree Days 21    
Moisture  
Dew Point 27 °F    
Average Humidity 50    
Maximum Humidity 70    
Minimum Humidity 28    
Precipitation  
Precipitation 0.00 in - - ()
Sea Level Pressure  
Sea Level Pressure 30.01 in    
Wind  
Wind Speed 14 mph (NW)    
Max Wind Speed 24 mph    
Max Gust Speed 32 mph    
Visibility 10 miles    
Events      
Averages and records for this station are not official NWS values.
T = Trace of Precipitation, MM = Missing Value Source: NWS Daily Summary

Daily Weather History Graph

Daily Weather History Graph

Search for Another Location

Airport or City:

Trip Planner

Search our weather history database for the weather conditions in past years. The results will help you decide how hot, cold, wet, or windy it might be!

Date:

Astronomy

Oct. 18, 2011 Rise Set
Actual Time 7:34 AM CDT 6:33 PM CDT
Civil Twilight 7:06 AM CDT 7:01 PM CDT
Nautical Twilight 6:34 AM CDT 7:33 PM CDT
Astronomical Twilight 6:01 AM CDT 8:06 PM CDT
Moon 11:11 PM CDT (10/18) 1:30 PM CDT (10/18)
Length of Visible Light 11h 54m
Length of Day
10h 58m
Waning Gibbous, 64% of the Moon is Illuminated
Oct 18
Waning Gibbous
Oct 19
Last Quarter
Oct 26
New
Nov 2
First Quarter
Nov 10
Full

Hourly Weather History & Observations

Time (CDT) Temp. Windchill Dew Point Humidity Pressure Visibility Wind Dir Wind Speed Gust Speed Precip Events Conditions
12:15 AM 50.0 °F - 26.6 °F 40% 29.96 in 10.0 mi West 10.4 mph - N/A   Clear
12:35 AM 50.0 °F - 26.6 °F 40% 29.96 in 10.0 mi WNW 11.5 mph - N/A   Clear
12:55 AM 50.0 °F - 28.4 °F 43% 29.95 in 10.0 mi WNW 13.8 mph - N/A   Clear
1:15 AM 50.0 °F - 28.4 °F 43% 29.94 in 10.0 mi WNW 12.7 mph - N/A   Clear
1:35 AM 50.0 °F - 28.4 °F 43% 29.94 in 10.0 mi WNW 11.5 mph - N/A   Clear
2:15 AM 50.0 °F - 26.6 °F 40% 29.93 in 10.0 mi NW 13.8 mph 19.6 mph N/A   Clear
2:55 AM 48.2 °F - 26.6 °F 43% 29.95 in 10.0 mi NW 9.2 mph - N/A   Clear
3:35 AM 48.2 °F - 26.6 °F 43% 29.97 in 10.0 mi WNW 10.4 mph - N/A   Clear
3:55 AM 46.4 °F 41.5 °F 26.6 °F 46% 29.97 in 10.0 mi WNW 10.4 mph - N/A   Clear
4:15 AM 46.4 °F 41.9 °F 28.4 °F 50% 29.97 in 10.0 mi WNW 9.2 mph - N/A   Clear
4:35 AM 44.6 °F 40.7 °F 28.4 °F 53% 29.97 in 10.0 mi WNW 6.9 mph - N/A   Clear
4:55 AM 42.8 °F 38.0 °F 28.4 °F 57% 29.98 in 10.0 mi WNW 8.1 mph - N/A   Clear
5:15 AM 39.2 °F 34.2 °F 26.6 °F 61% 29.98 in 10.0 mi West 6.9 mph - N/A   Clear
5:35 AM 37.4 °F 30.8 °F 26.6 °F 65% 29.98 in 10.0 mi WNW 9.2 mph - N/A   Clear
5:55 AM 39.2 °F 32.0 °F 26.6 °F 61% 29.98 in 10.0 mi WNW 11.5 mph - N/A   Clear
6:15 AM 41.0 °F 33.9 °F 26.6 °F 57% 29.98 in 10.0 mi NW 12.7 mph - N/A   Clear
6:35 AM 39.2 °F 31.2 °F 28.4 °F 65% 29.98 in 10.0 mi NW 13.8 mph - N/A   Clear
7:15 AM 37.4 °F 28.2 °F 26.6 °F 65% 29.98 in 10.0 mi NW 16.1 mph 23.0 mph N/A   Clear
7:35 AM 37.4 °F 28.2 °F 28.4 °F 70% 29.99 in 10.0 mi NW 16.1 mph - N/A   Clear
7:55 AM 37.4 °F 28.5 °F 28.4 °F 70% 29.99 in 10.0 mi NW 15.0 mph - N/A   Clear
8:15 AM 37.4 °F 28.9 °F 28.4 °F 70% 30.00 in 10.0 mi NW 13.8 mph - N/A   Clear
8:35 AM 37.4 °F 29.3 °F 28.4 °F 70% 30.01 in 10.0 mi NW 12.7 mph - N/A   Clear
9:15 AM 39.2 °F 30.2 °F 30.2 °F 70% 30.02 in 10.0 mi NW 17.3 mph 21.9 mph N/A   Clear
9:35 AM 41.0 °F 31.9 °F 30.2 °F 65% 30.02 in 10.0 mi NNW 19.6 mph 24.2 mph N/A   Clear
9:55 AM 42.8 °F 34.5 °F 30.2 °F 61% 30.03 in 10.0 mi NNW 18.4 mph 26.5 mph N/A   Clear
10:15 AM 44.6 °F 35.9 °F 30.2 °F 57% 30.03 in 10.0 mi NNW 23.0 mph 27.6 mph N/A   Scattered Clouds
10:35 AM 44.6 °F 36.1 °F 30.2 °F 57% 30.03 in 10.0 mi NNW 21.9 mph 26.5 mph N/A   Overcast
10:55 AM 44.6 °F 36.4 °F 32.0 °F 61% 30.04 in 10.0 mi NNW 20.7 mph - N/A   Overcast
11:15 AM 44.6 °F 36.9 °F 32.0 °F 61% 30.04 in 10.0 mi NW 18.4 mph 23.0 mph N/A   Overcast
11:55 AM 44.6 °F 35.9 °F 32.0 °F 61% 30.04 in 10.0 mi North 23.0 mph 27.6 mph N/A   Overcast
12:15 PM 46.4 °F 38.7 °F 32.0 °F 57% 30.04 in 10.0 mi North 20.7 mph 27.6 mph N/A   Overcast
12:35 PM 44.6 °F 35.9 °F 32.0 °F 61% 30.04 in 10.0 mi NNW 23.0 mph 27.6 mph N/A   Overcast
12:55 PM 44.6 °F 36.4 °F 32.0 °F 61% 30.04 in 10.0 mi NNW 20.7 mph 25.3 mph N/A   Overcast
1:15 PM 46.4 °F 39.0 °F 32.0 °F 57% 30.03 in 10.0 mi NNW 19.6 mph 28.8 mph N/A   Overcast
1:35 PM 46.4 °F 38.7 °F 32.0 °F 57% 30.03 in 10.0 mi NNW 20.7 mph 26.5 mph N/A   Overcast
1:55 PM 46.4 °F 39.0 °F 30.2 °F 53% 30.03 in 10.0 mi NNW 19.6 mph 26.5 mph N/A   Overcast
2:15 PM 46.4 °F 39.0 °F 30.2 °F 53% 30.03 in 10.0 mi NNW 19.6 mph 27.6 mph N/A   Overcast
2:35 PM 46.4 °F 38.5 °F 30.2 °F 53% 30.03 in 10.0 mi NNW 21.9 mph 26.5 mph N/A   Overcast
2:55 PM 48.2 °F - 30.2 °F 50% 30.02 in 10.0 mi NW 21.9 mph - N/A   Overcast
3:15 PM 50.0 °F - 30.2 °F 47% 30.02 in 10.0 mi NNW 24.2 mph 28.8 mph N/A   Mostly Cloudy
3:35 PM 51.8 °F - 28.4 °F 41% 30.01 in 10.0 mi North 19.6 mph 25.3 mph N/A   Scattered Clouds
3:55 PM 51.8 °F - 24.8 °F 35% 30.01 in 10.0 mi NNW 18.4 mph 27.6 mph N/A   Scattered Clouds
4:15 PM 51.8 °F - 21.2 °F 30% 30.01 in 10.0 mi NNW 20.7 mph 32.2 mph N/A   Clear
4:35 PM 51.8 °F - 21.2 °F 30% 30.01 in 10.0 mi NNW 21.9 mph 25.3 mph N/A   Clear
4:55 PM 51.8 °F - 19.4 °F 28% 30.01 in 10.0 mi NNW 21.9 mph 27.6 mph N/A   Clear
5:15 PM 51.8 °F - 19.4 °F 28% 30.01 in 10.0 mi North 20.7 mph 27.6 mph N/A   Clear
5:35 PM 50.0 °F - 17.6 °F 28% 30.02 in 10.0 mi North 21.9 mph 27.6 mph N/A   Clear
5:55 PM 48.2 °F - 19.4 °F 32% 30.02 in 10.0 mi NNW 24.2 mph 27.6 mph N/A   Clear
6:15 PM 48.2 °F - 19.4 °F 32% 30.03 in 10.0 mi NNW 16.1 mph - N/A   Clear
6:35 PM 46.4 °F 40.1 °F 19.4 °F 34% 30.03 in 10.0 mi NNW 15.0 mph 20.7 mph N/A   Clear
6:55 PM 44.6 °F 38.4 °F 21.2 °F 39% 30.04 in 10.0 mi NNW 12.7 mph - N/A   Clear
7:15 PM 44.6 °F 38.8 °F 21.2 °F 39% 30.04 in 10.0 mi NNW 11.5 mph - N/A   Clear
7:35 PM 42.8 °F 37.0 °F 21.2 °F 42% 30.05 in 10.0 mi NNW 10.4 mph - N/A   Clear
7:55 PM 41.0 °F 34.7 °F 21.2 °F 45% 30.05 in 10.0 mi NNW 10.4 mph - N/A   Clear
8:15 PM 39.2 °F 33.0 °F 21.2 °F 49% 30.05 in 10.0 mi NNW 9.2 mph - N/A   Clear
8:35 PM 39.2 °F 32.5 °F 21.2 °F 49% 30.05 in 10.0 mi NNW 10.4 mph - N/A   Clear
8:55 PM 37.4 °F 29.8 °F 21.2 °F 52% 30.05 in 10.0 mi NNW 11.5 mph - N/A   Clear
9:15 PM 37.4 °F 29.8 °F 21.2 °F 52% 30.05 in 10.0 mi NNW 11.5 mph - N/A   Clear
9:35 PM 37.4 °F 29.3 °F 21.2 °F 52% 30.05 in 10.0 mi NNW 12.7 mph - N/A   Clear
9:55 PM 37.4 °F 29.8 °F 21.2 °F 52% 30.05 in 10.0 mi NNW 11.5 mph - N/A   Clear
10:15 PM 35.6 °F 28.0 °F 21.2 °F 56% 30.05 in 10.0 mi NNW 10.4 mph - N/A   Clear
10:35 PM 35.6 °F 28.6 °F 21.2 °F 56% 30.05 in 10.0 mi NW 9.2 mph - N/A   Clear
10:55 PM 35.6 °F 28.6 °F 21.2 °F 56% 30.06 in 10.0 mi NW 9.2 mph - N/A   Clear
11:15 PM 33.8 °F 25.8 °F 21.2 °F 60% 30.05 in 10.0 mi NW 10.4 mph - N/A   Clear
11:35 PM 35.6 °F 27.1 °F 21.2 °F 56% 30.04 in 10.0 mi NW 12.7 mph - N/A   Clear
11:55 PM 35.6 °F 27.5 °F 21.2 °F 56% 30.04 in 10.0 mi NW 11.5 mph - N/A   Clear